Time,TemperatureF,DewpointF,PressureIn,WindDirection,WindDirectionDegrees,WindSpeedMPH,WindSpeedGustMPH,Humidity,HourlyPrecipIn,Conditions,Clouds,dailyrainin,SoftwareType,DateUTC
2013-04-23 00:01:00,63.6,46.2,29.87,NNE,19,0.0,0.0,53,0.00,,,0.00,WeatherCatV1.14B232,2013-04-23 07:01:00,
2013-04-23 00:06:00,63.5,48.5,29.87,WSW,246,0.0,0.0,58,0.00,,,0.00,WeatherCatV1.14B232,2013-04-23 07:06:00,
2013-04-23 00:11:00,62.6,48.5,29.87,SW,231,0.0,0.0,60,0.00,,,0.00,WeatherCatV1.14B232,2013-04-23 07:11:00,
2013-04-23 00:16:00,62.2,47.2,29.87,WSW,246,1.0,2.0,58,0.00,,,0.00,WeatherCatV1.14B232,2013-04-23 07:16:00,
2013-04-23 00:21:00,62.2,47.2,29.87,WSW,248,0.0,0.0,58,0.00,,,0.00,WeatherCatV1.14B232,2013-04-23 07:21:00,
2013-04-23 00:26:00,62.4,46.0,29.87,West,259,1.0,1.0,55,0.00,,,0.00,WeatherCatV1.14B232,2013-04-23 07:26:00,
2013-04-23 00:31:00,62.9,47.0,29.87,SW,229,1.0,2.0,56,0.00,,,0.00,WeatherCatV1.14B232,2013-04-23 07:31:00,
2013-04-23 00:36:00,63.1,46.2,29.87,WSW,248,0.0,1.0,54,0.00,,,0.00,WeatherCatV1.14B232,2013-04-23 07:36:00,
2013-04-23 00:41:00,63.8,44.3,29.87,SW,231,0.0,0.0,49,0.00,,,0.00,WeatherCatV1.14B232,2013-04-23 07:41:00,
2013-04-23 00:46:00,64.3,44.2,29.87,SW,232,0.0,0.0,48,0.00,,,0.00,WeatherCatV1.14B232,2013-04-23 07:46:00,
2013-04-23 00:51:00,64.3,44.2,29.87,SW,232,0.0,0.0,48,0.00,,,0.00,WeatherCatV1.14B232,2013-04-23 07:51:00,
2013-04-23 00:56:00,64.2,43.0,29.87,WSW,246,0.0,0.0,46,0.00,,,0.00,WeatherCatV1.14B232,2013-04-23 07:56:00,
2013-04-23 01:01:00,64.7,43.4,29.87,SW,236,0.0,0.0,46,0.00,,,0.00,WeatherCatV1.14B232,2013-04-23 08:01:00,
2013-04-23 01:06:00,65.1,41.4,29.87,SW,215,0.0,0.0,42,0.00,,,0.00,WeatherCatV1.14B232,2013-04-23 08:06:00,
2013-04-23 01:11:00,65.5,40.5,29.87,WSW,238,0.0,0.0,40,0.00,,,0.00,WeatherCatV1.14B232,2013-04-23 08:11:00,
2013-04-23 01:16:00,65.9,40.9,29.87,SSW,212,0.0,0.0,40,0.00,,,0.00,WeatherCatV1.14B232,2013-04-23 08:16:00,
2013-04-23 01:21:00,66.4,41.3,29.87,SW,229,0.0,0.0,40,0.00,,,0.00,WeatherCatV1.14B232,2013-04-23 08:21:00,
2013-04-23 01:26:00,66.6,42.2,29.87,WSW,243,0.0,2.0,41,0.00,,,0.00,WeatherCatV1.14B232,2013-04-23 08:26:00,
2013-04-23 01:31:00,66.5,43.3,29.87,WSW,250,0.0,0.0,43,0.00,,,0.00,WeatherCatV1.14B232,2013-04-23 08:31:00,
2013-04-23 01:36:00,66.0,42.2,29.86,North,1,0.0,0.0,42,0.00,,,0.00,WeatherCatV1.14B232,2013-04-23 08:36:00,
2013-04-23 01:41:00,65.9,42.2,29.86,SW,221,0.0,1.0,42,0.00,,,0.00,WeatherCatV1.14B232,2013-04-23 08:41:00,
2013-04-23 01:46:00,65.8,41.4,29.86,SW,236,0.0,0.0,41,0.00,,,0.00,WeatherCatV1.14B232,2013-04-23 08:46:00,
2013-04-23 01:51:00,66.0,41.6,29.86,WSW,243,0.0,0.0,41,0.00,,,0.00,WeatherCatV1.14B232,2013-04-23 08:51:00,
2013-04-23 01:57:00,66.3,41.2,29.86,SW,224,0.0,1.0,40,0.00,,,0.00,WeatherCatV1.14B232,2013-04-23 08:57:00,
2013-04-23 02:02:00,66.1,41.7,29.86,SW,235,0.0,1.0,41,0.00,,,0.00,WeatherCatV1.14B232,2013-04-23 09:02:00,
2013-04-23 02:07:00,65.5,42.4,29.86,West,262,1.0,1.0,43,0.00,,,0.00,WeatherCatV1.14B232,2013-04-23 09:07:00,
2013-04-23 02:12:00,65.3,42.2,29.86,SW,236,0.0,2.0,43,0.00,,,0.00,WeatherCatV1.14B232,2013-04-23 09:12:00,
2013-04-23 02:17:00,64.9,41.9,29.86,SW,236,0.0,1.0,43,0.00,,,0.00,WeatherCatV1.14B232,2013-04-23 09:17:00,
2013-04-23 02:22:00,64.8,41.8,29.86,WSW,255,1.0,4.0,43,0.00,,,0.00,WeatherCatV1.14B232,2013-04-23 09:22:00,
2013-04-23 02:27:00,64.7,41.7,29.86,WSW,243,2.0,4.0,43,0.00,,,0.00,WeatherCatV1.14B232,2013-04-23 09:27:00,
2013-04-23 02:32:00,64.5,40.9,29.86,WSW,243,3.0,3.0,42,0.00,,,0.00,WeatherCatV1.14B232,2013-04-23 09:32:00,
2013-04-23 02:37:00,64.6,41.6,29.86,WSW,252,1.0,2.0,43,0.00,,,0.00,WeatherCatV1.14B232,2013-04-23 09:37:00,
2013-04-23 02:42:00,64.2,41.8,29.86,WSW,246,1.0,4.0,44,0.00,,,0.00,WeatherCatV1.14B232,2013-04-23 09:42:00,
2013-04-23 02:47:00,64.1,41.7,29.86,West,260,1.0,2.0,44,0.00,,,0.00,WeatherCatV1.14B232,2013-04-23 09:47:00,
2013-04-23 02:52:00,63.5,43.5,29.86,West,259,2.0,2.0,48,0.00,,,0.00,WeatherCatV1.14B232,2013-04-23 09:52:00,
2013-04-23 02:57:00,63.3,41.0,29.86,West,278,1.0,2.0,44,0.00,,,0.00,WeatherCatV1.14B232,2013-04-23 09:57:00,
2013-04-23 03:02:00,63.5,40.6,29.86,North,8,2.0,5.0,43,0.00,,,0.00,WeatherCatV1.14B232,2013-04-23 10:02:00,
2013-04-23 03:07:00,63.8,40.3,29.86,West,263,1.0,4.0,42,0.00,,,0.00,WeatherCatV1.14B232,2013-04-23 10:07:00,
2013-04-23 03:12:00,64.0,39.8,29.85,West,259,1.0,4.0,41,0.00,,,0.00,WeatherCatV1.14B232,2013-04-23 10:12:00,
2013-04-23 03:17:00,64.0,40.4,29.86,WSW,240,3.0,6.0,42,0.00,,,0.00,WeatherCatV1.14B232,2013-04-23 10:17:00,
2013-04-23 03:22:00,63.9,40.4,29.86,West,267,1.0,6.0,42,0.00,,,0.00,WeatherCatV1.14B232,2013-04-23 10:22:00,
2013-04-23 03:27:00,63.9,40.4,29.86,West,281,1.0,4.0,42,0.00,,,0.00,WeatherCatV1.14B232,2013-04-23 10:27:00,
2013-04-23 03:32:00,64.1,39.3,29.86,West,260,1.0,5.0,40,0.00,,,0.00,WeatherCatV1.14B232,2013-04-23 10:32:00,
2013-04-23 03:37:00,64.0,40.4,29.85,NNE,17,1.0,5.0,42,0.00,,,0.00,WeatherCatV1.14B232,2013-04-23 10:37:00,
2013-04-23 03:42:00,63.9,39.7,29.86,NW,309,1.0,3.0,41,0.00,,,0.00,WeatherCatV1.14B232,2013-04-23 10:42:00,
2013-04-23 03:47:00,64.0,39.8,29.86,WSW,243,2.0,4.0,41,0.00,,,0.00,WeatherCatV1.14B232,2013-04-23 10:47:00,
2013-04-23 03:52:00,64.0,39.2,29.86,NW,326,2.0,4.0,40,0.00,,,0.00,WeatherCatV1.14B232,2013-04-23 10:52:00,
2013-04-23 03:57:00,64.1,38.0,29.86,WSW,254,3.0,5.0,38,0.00,,,0.00,WeatherCatV1.14B232,2013-04-23 10:57:00,
2013-04-23 04:02:00,64.1,38.6,29.86,West,277,2.0,4.0,39,0.00,,,0.00,WeatherCatV1.14B232,2013-04-23 11:02:00,
2013-04-23 04:07:00,64.3,36.8,29.86,NNW,333,2.0,6.0,36,0.00,,,0.00,WeatherCatV1.14B232,2013-04-23 11:07:00,
2013-04-23 04:12:00,64.6,37.0,29.86,WSW,249,2.0,4.0,36,0.00,,,0.00,WeatherCatV1.14B232,2013-04-23 11:12:00,
2013-04-23 04:17:00,64.6,36.3,29.86,West,280,1.0,2.0,35,0.00,,,0.00,WeatherCatV1.14B232,2013-04-23 11:17:00,
2013-04-23 04:22:00,64.7,36.4,29.86,North,3,1.0,2.0,35,0.00,,,0.00,WeatherCatV1.14B232,2013-04-23 11:22:00,
2013-04-23 04:27:00,64.6,35.6,29.86,West,281,2.0,5.0,34,0.00,,,0.00,WeatherCatV1.14B232,2013-04-23 11:27:00,
2013-04-23 04:32:00,64.9,35.9,29.87,West,281,1.0,4.0,34,0.00,,,0.00,WeatherCatV1.14B232,2013-04-23 11:32:00,
2013-04-23 04:37:00,65.2,36.1,29.87,North,349,1.0,2.0,34,0.00,,,0.00,WeatherCatV1.14B232,2013-04-23 11:37:00,
2013-04-23 04:43:00,65.2,35.4,29.87,WSW,243,4.0,5.0,33,0.00,,,0.00,WeatherCatV1.14B232,2013-04-23 11:43:00,
2013-04-23 04:48:00,65.2,34.6,29.87,WSW,256,2.0,5.0,32,0.00,,,0.00,WeatherCatV1.14B232,2013-04-23 11:48:00,
2013-04-23 04:53:00,65.1,34.5,29.87,WNW,284,1.0,6.0,32,0.00,,,0.00,WeatherCatV1.14B232,2013-04-23 11:53:00,
2013-04-23 04:58:00,65.2,34.6,29.87,WSW,252,1.0,8.0,32,0.00,,,0.00,WeatherCatV1.14B232,2013-04-23 11:58:00,
2013-04-23 05:03:00,65.2,33.8,29.87,WNW,283,1.0,5.0,31,0.00,,,0.00,WeatherCatV1.14B232,2013-04-23 12:03:00,
2013-04-23 05:08:00,65.1,34.5,29.87,NNW,337,1.0,5.0,32,0.00,,,0.00,WeatherCatV1.14B232,2013-04-23 12:08:00,
2013-04-23 05:13:00,65.0,34.4,29.87,WSW,240,1.0,3.0,32,0.00,,,0.00,WeatherCatV1.14B232,2013-04-23 12:13:00,
2013-04-23 05:18:00,64.9,34.3,29.87,West,267,2.0,4.0,32,0.00,,,0.00,WeatherCatV1.14B232,2013-04-23 12:18:00,
2013-04-23 05:23:00,64.7,34.9,29.87,West,274,2.0,4.0,33,0.00,,,0.00,WeatherCatV1.14B232,2013-04-23 12:23:00,
2013-04-23 05:28:00,64.6,34.8,29.87,West,274,1.0,4.0,33,0.00,,,0.00,WeatherCatV1.14B232,2013-04-23 12:28:00,
2013-04-23 05:33:00,64.5,35.5,29.87,West,259,2.0,5.0,34,0.00,,,0.00,WeatherCatV1.14B232,2013-04-23 12:33:00,
2013-04-23 05:38:00,64.5,35.5,29.87,West,277,2.0,5.0,34,0.00,,,0.00,WeatherCatV1.14B232,2013-04-23 12:38:00,
2013-04-23 05:43:00,64.3,34.6,29.87,NW,316,2.0,5.0,33,0.00,,,0.00,WeatherCatV1.14B232,2013-04-23 12:43:00,
2013-04-23 05:48:00,64.4,34.7,29.87,SSW,205,1.0,10.0,33,0.00,,,0.00,WeatherCatV1.14B232,2013-04-23 12:48:00,
2013-04-23 05:53:00,64.4,34.7,29.87,WNW,286,2.0,5.0,33,0.00,,,0.00,WeatherCatV1.14B232,2013-04-23 12:53:00,
2013-04-23 05:58:00,64.5,34.0,29.87,NNW,330,1.0,5.0,32,0.00,,,0.00,WeatherCatV1.14B232,2013-04-23 12:58:00,
2013-04-23 06:03:00,64.6,33.3,29.88,NNW,341,1.0,8.0,31,0.00,,,0.00,WeatherCatV1.14B232,2013-04-23 13:03:00,
2013-04-23 06:08:00,64.6,33.3,29.88,WNW,293,2.0,4.0,31,0.00,,,0.00,WeatherCatV1.14B232,2013-04-23 13:08:00,
2013-04-23 06:13:00,64.7,34.9,29.88,NNW,333,1.0,6.0,33,0.00,,,0.00,WeatherCatV1.14B232,2013-04-23 13:13:00,
2013-04-23 06:18:00,64.4,33.9,29.88,WSW,252,2.0,2.0,32,0.00,,,0.00,WeatherCatV1.14B232,2013-04-23 13:18:00,
2013-04-23 06:23:00,64.3,34.6,29.88,West,259,2.0,6.0,33,0.00,,,0.00,WeatherCatV1.14B232,2013-04-23 13:23:00,
2013-04-23 06:28:00,63.9,35.7,29.88,SSW,197,1.0,3.0,35,0.00,,,0.00,WeatherCatV1.14B232,2013-04-23 13:28:00,
2013-04-23 06:33:00,63.6,34.7,29.89,WNW,291,1.0,4.0,34,0.00,,,0.00,WeatherCatV1.14B232,2013-04-23 13:33:00,
2013-04-23 06:38:00,63.4,34.5,29.89,SW,232,1.0,2.0,34,0.00,,,0.00,WeatherCatV1.14B232,2013-04-23 13:38:00,
2013-04-23 06:43:00,63.2,32.9,29.89,West,269,2.0,3.0,32,0.00,,,0.00,WeatherCatV1.14B232,2013-04-23 13:43:00,
2013-04-23 06:48:00,63.0,32.7,29.89,WSW,242,1.0,2.0,32,0.00,,,0.00,WeatherCatV1.14B232,2013-04-23 13:48:00,
2013-04-23 06:53:00,62.8,32.5,29.89,SSW,207,2.0,4.0,32,0.00,,,0.00,WeatherCatV1.14B232,2013-04-23 13:53:00,
2013-04-23 06:58:00,62.9,31.8,29.89,WNW,284,2.0,3.0,31,0.00,,,0.00,WeatherCatV1.14B232,2013-04-23 13:58:00,
2013-04-23 07:03:00,63.0,31.9,29.90,SW,233,1.0,2.0,31,0.00,,,0.00,WeatherCatV1.14B232,2013-04-23 14:03:00,
2013-04-23 07:08:00,63.0,32.7,29.90,West,264,0.0,2.0,32,0.00,,,0.00,WeatherCatV1.14B232,2013-04-23 14:08:00,
2013-04-23 07:13:00,63.0,32.7,29.90,West,271,2.0,4.0,32,0.00,,,0.00,WeatherCatV1.14B232,2013-04-23 14:13:00,
2013-04-23 07:18:00,63.1,32.0,29.90,WSW,248,3.0,4.0,31,0.00,,,0.00,WeatherCatV1.14B232,2013-04-23 14:18:00,
2013-04-23 07:23:00,63.1,32.0,29.90,WSW,243,2.0,4.0,31,0.00,,,0.00,WeatherCatV1.14B232,2013-04-23 14:23:00,
2013-04-23 07:28:00,63.3,32.9,29.90,West,266,3.0,6.0,32,0.00,,,0.00,WeatherCatV1.14B232,2013-04-23 14:28:00,
2013-04-23 07:33:00,63.6,30.8,29.90,NW,309,2.0,6.0,29,0.00,,,0.00,WeatherCatV1.14B232,2013-04-23 14:33:00,
2013-04-23 07:38:00,63.9,29.3,29.90,West,260,2.0,5.0,27,0.00,,,0.00,WeatherCatV1.14B232,2013-04-23 14:38:00,
2013-04-23 07:43:00,64.2,30.4,29.90,WNW,298,2.0,3.0,28,0.00,,,0.00,WeatherCatV1.14B232,2013-04-23 14:43:00,
2013-04-23 07:50:00,64.3,31.4,29.90,WNW,291,2.0,2.0,29,0.00,,,0.00,WeatherCatV1.14B232,2013-04-23 14:50:00,
2013-04-23 07:55:00,64.5,30.7,29.91,WNW,291,4.0,6.0,28,0.00,,,0.00,WeatherCatV1.14B232,2013-04-23 14:55:00,
2013-04-23 08:00:00,64.7,29.9,29.91,NNW,338,1.0,9.0,27,0.00,,,0.00,WeatherCatV1.14B232,2013-04-23 15:00:00,
2013-04-23 08:05:00,64.8,30.9,29.91,WSW,256,1.0,3.0,28,0.00,,,0.00,WeatherCatV1.14B232,2013-04-23 15:05:00,
2013-04-23 08:10:00,64.9,32.7,29.91,SSW,208,3.0,6.0,30,0.00,,,0.00,WeatherCatV1.14B232,2013-04-23 15:10:00,
2013-04-23 08:15:00,65.1,32.1,29.92,NE,47,2.0,2.0,29,0.00,,,0.00,WeatherCatV1.14B232,2013-04-23 15:15:00,
2013-04-23 08:20:00,65.2,32.1,29.91,West,269,2.0,3.0,29,0.00,,,0.00,WeatherCatV1.14B232,2013-04-23 15:20:00,
2013-04-23 08:25:00,65.3,31.4,29.92,SW,236,2.0,4.0,28,0.00,,,0.00,WeatherCatV1.14B232,2013-04-23 15:25:00,
2013-04-23 08:30:00,65.5,31.5,29.92,NW,307,1.0,3.0,28,0.00,,,0.00,WeatherCatV1.14B232,2013-04-23 15:30:00,
2013-04-23 08:35:00,65.7,32.6,29.92,West,280,1.0,3.0,29,0.00,,,0.00,WeatherCatV1.14B232,2013-04-23 15:35:00,
2013-04-23 08:40:00,65.9,31.0,29.92,WSW,257,1.0,3.0,27,0.00,,,0.00,WeatherCatV1.14B232,2013-04-23 15:40:00,
2013-04-23 08:45:00,66.1,32.0,29.92,West,266,1.0,5.0,28,0.00,,,0.00,WeatherCatV1.14B232,2013-04-23 15:45:00,
2013-04-23 08:50:00,66.4,31.4,29.93,West,278,1.0,2.0,27,0.00,,,0.00,WeatherCatV1.14B232,2013-04-23 15:50:00,
2013-04-23 08:55:00,66.6,31.6,29.93,SW,229,1.0,3.0,27,0.00,,,0.00,WeatherCatV1.14B232,2013-04-23 15:55:00,
2013-04-23 09:00:00,66.9,31.8,29.92,West,276,2.0,3.0,27,0.00,,,0.00,WeatherCatV1.14B232,2013-04-23 16:00:00,
2013-04-23 09:05:00,67.1,32.0,29.92,WNW,284,1.0,2.0,27,0.00,,,0.00,WeatherCatV1.14B232,2013-04-23 16:05:00,
2013-04-23 09:10:00,67.3,32.2,29.93,NW,316,1.0,2.0,27,0.00,,,0.00,WeatherCatV1.14B232,2013-04-23 16:10:00,
2013-04-23 09:15:00,67.7,33.4,29.92,WSW,249,1.0,2.0,28,0.00,,,0.00,WeatherCatV1.14B232,2013-04-23 16:15:00,
2013-04-23 09:20:00,68.0,32.8,29.92,NE,37,0.0,1.0,27,0.00,,,0.00,WeatherCatV1.14B232,2013-04-23 16:20:00,
2013-04-23 09:25:00,68.3,33.9,29.92,SW,232,2.0,2.0,28,0.00,,,0.00,WeatherCatV1.14B232,2013-04-23 16:25:00,
2013-04-23 09:30:00,68.7,35.2,29.92,West,264,0.0,2.0,29,0.00,,,0.00,WeatherCatV1.14B232,2013-04-23 16:30:00,
2013-04-23 09:35:00,68.9,34.4,29.92,WNW,287,2.0,2.0,28,0.00,,,0.00,WeatherCatV1.14B232,2013-04-23 16:35:00,
2013-04-23 09:40:00,69.2,35.6,29.92,West,267,1.0,1.0,29,0.00,,,0.00,WeatherCatV1.14B232,2013-04-23 16:40:00,
2013-04-23 09:45:00,69.5,35.0,29.92,WNW,284,1.0,3.0,28,0.00,,,0.00,WeatherCatV1.14B232,2013-04-23 16:45:00,
2013-04-23 09:50:00,69.7,34.2,29.92,West,264,1.0,4.0,27,0.00,,,0.00,WeatherCatV1.14B232,2013-04-23 16:50:00,
2013-04-23 09:55:00,70.1,34.6,29.92,WNW,288,1.0,3.0,27,0.00,,,0.00,WeatherCatV1.14B232,2013-04-23 16:55:00,
2013-04-23 10:00:00,70.2,33.7,29.92,SW,232,2.0,3.0,26,0.00,,,0.00,WeatherCatV1.14B232,2013-04-23 17:00:00,
2013-04-23 10:05:00,70.3,33.8,29.92,WNW,295,1.0,3.0,26,0.00,,,0.00,WeatherCatV1.14B232,2013-04-23 17:05:00,
2013-04-23 10:10:00,70.7,34.1,29.93,West,269,1.0,3.0,26,0.00,,,0.00,WeatherCatV1.14B232,2013-04-23 17:10:00,
2013-04-23 10:15:00,71.0,35.3,29.92,West,264,1.0,3.0,27,0.00,,,0.00,WeatherCatV1.14B232,2013-04-23 17:15:00,
2013-04-23 10:20:00,71.4,33.7,29.93,West,277,1.0,2.0,25,0.00,,,0.00,WeatherCatV1.14B232,2013-04-23 17:20:00,
2013-04-23 10:25:00,72.0,32.2,29.92,West,281,1.0,2.0,23,0.00,,,0.00,WeatherCatV1.14B232,2013-04-23 17:25:00,
2013-04-23 10:30:00,72.1,32.3,29.92,West,278,1.0,3.0,23,0.00,,,0.00,WeatherCatV1.14B232,2013-04-23 17:30:00,
2013-04-23 10:35:00,72.4,31.4,29.92,WSW,243,1.0,2.0,22,0.00,,,0.00,WeatherCatV1.14B232,2013-04-23 17:35:00,
2013-04-23 10:40:00,73.0,33.0,29.93,West,281,2.0,2.0,23,0.00,,,0.00,WeatherCatV1.14B232,2013-04-23 17:40:00,
2013-04-23 10:45:00,73.6,31.2,29.93,SW,228,0.0,2.0,21,0.00,,,0.00,WeatherCatV1.14B232,2013-04-23 17:45:00,
2013-04-23 10:50:00,74.1,31.7,29.93,WSW,250,0.0,0.0,21,0.00,,,0.00,WeatherCatV1.14B232,2013-04-23 17:50:00,
2013-04-23 10:55:00,74.5,33.1,29.94,WSW,249,0.0,2.0,22,0.00,,,0.00,WeatherCatV1.14B232,2013-04-23 17:55:00,
2013-04-23 11:00:00,75.1,31.3,29.94,North,0,0.0,1.0,20,0.00,,,0.00,WeatherCatV1.14B232,2013-04-23 18:00:00,
2013-04-23 11:05:00,76.0,35.5,29.94,NNE,32,1.0,1.0,23,0.00,,,0.00,WeatherCatV1.14B232,2013-04-23 18:05:00,
2013-04-23 11:10:00,76.5,31.2,29.94,NE,48,0.0,1.0,19,0.00,,,0.00,WeatherCatV1.14B232,2013-04-23 18:10:00,
2013-04-23 11:15:00,76.7,32.6,29.94,WSW,257,0.0,0.0,20,0.00,,,0.00,WeatherCatV1.14B232,2013-04-23 18:15:00,
2013-04-23 11:20:00,77.4,33.2,29.94,NNE,19,0.0,2.0,20,0.00,,,0.00,WeatherCatV1.14B232,2013-04-23 18:20:00,
2013-04-23 11:25:00,78.5,34.1,29.94,West,262,0.0,1.0,20,0.00,,,0.00,WeatherCatV1.14B232,2013-04-23 18:25:00,
2013-04-23 11:30:00,79.1,33.3,29.94,West,266,0.0,2.0,19,0.00,,,0.00,WeatherCatV1.14B232,2013-04-23 18:30:00,
2013-04-23 11:35:00,79.5,30.9,29.94,WNW,296,1.0,1.0,17,0.00,,,0.00,WeatherCatV1.14B232,2013-04-23 18:35:00,
2013-04-23 11:40:00,79.6,30.9,29.94,ENE,58,1.0,1.0,17,0.00,,,0.00,WeatherCatV1.14B232,2013-04-23 18:40:00,
2013-04-23 11:45:00,80.0,32.7,29.94,WSW,238,0.0,0.0,18,0.00,,,0.00,WeatherCatV1.14B232,2013-04-23 18:45:00,
2013-04-23 11:50:00,80.7,30.3,29.94,NE,39,1.0,2.0,16,0.00,,,0.00,WeatherCatV1.14B232,2013-04-23 18:50:00,
2013-04-23 11:55:00,81.0,30.6,29.94,NNW,348,1.0,1.0,16,0.00,,,0.00,WeatherCatV1.14B232,2013-04-23 18:55:00,
2013-04-23 12:00:00,81.0,32.1,29.93,WSW,246,0.0,1.0,17,0.00,,,0.00,WeatherCatV1.14B232,2013-04-23 19:00:00,
2013-04-23 12:05:00,81.1,29.1,29.93,NE,48,0.0,0.0,15,0.00,,,0.00,WeatherCatV1.14B232,2013-04-23 19:05:00,
2013-04-23 12:10:00,81.1,30.6,29.93,NE,39,0.0,2.0,16,0.00,,,0.00,WeatherCatV1.14B232,2013-04-23 19:10:00,
2013-04-23 12:15:00,81.7,32.6,29.93,NNE,32,0.0,2.0,17,0.00,,,0.00,WeatherCatV1.14B232,2013-04-23 19:15:00,
2013-04-23 12:20:00,80.2,46.8,29.94,West,266,2.0,4.0,31,0.00,,,0.00,WeatherCatV1.14B232,2013-04-23 19:20:00,
2013-04-23 12:25:00,77.1,47.3,29.93,SW,228,0.0,3.0,35,0.00,,,0.00,WeatherCatV1.14B232,2013-04-23 19:25:00,
2013-04-23 12:30:00,75.7,49.6,29.93,WSW,251,2.0,7.0,40,0.00,,,0.00,WeatherCatV1.14B232,2013-04-23 19:30:00,
2013-04-23 12:35:00,74.8,49.5,29.93,West,262,1.0,4.0,41,0.00,,,0.00,WeatherCatV1.14B232,2013-04-23 19:35:00,
2013-04-23 12:40:00,73.7,49.2,29.93,WSW,242,2.0,4.0,42,0.00,,,0.00,WeatherCatV1.14B232,2013-04-23 19:40:00,
2013-04-23 12:45:00,71.5,48.4,29.93,SW,236,5.0,7.0,44,0.00,,,0.00,WeatherCatV1.14B232,2013-04-23 19:45:00,
2013-04-23 12:50:00,68.9,47.3,29.93,West,269,6.0,12.0,46,0.00,,,0.00,WeatherCatV1.14B232,2013-04-23 19:50:00,
2013-04-23 12:55:00,67.2,47.9,29.93,WSW,257,5.0,10.0,50,0.00,,,0.00,WeatherCatV1.14B232,2013-04-23 19:55:00,
2013-04-23 13:00:00,67.2,49.5,29.92,WNW,302,1.0,3.0,53,0.00,,,0.00,WeatherCatV1.14B232,2013-04-23 20:00:00,
2013-04-23 13:05:00,67.5,48.7,29.92,WSW,243,4.0,10.0,51,0.00,,,0.00,WeatherCatV1.14B232,2013-04-23 20:05:00,
2013-04-23 13:10:00,66.0,48.9,29.92,SW,226,6.0,7.0,54,0.00,,,0.00,WeatherCatV1.14B232,2013-04-23 20:10:00,
2013-04-23 13:15:00,66.1,49.5,29.92,WSW,243,1.0,5.0,55,0.00,,,0.00,WeatherCatV1.14B232,2013-04-23 20:15:00,
2013-04-23 13:20:00,65.7,48.6,29.92,WSW,246,7.0,10.0,54,0.00,,,0.00,WeatherCatV1.14B232,2013-04-23 20:20:00,
2013-04-23 13:25:00,64.9,48.8,29.92,SW,226,9.0,12.0,56,0.00,,,0.00,WeatherCatV1.14B232,2013-04-23 20:25:00,
2013-04-23 13:30:00,64.1,48.5,29.92,WSW,240,6.0,11.0,57,0.00,,,0.00,WeatherCatV1.14B232,2013-04-23 20:30:00,
2013-04-23 13:35:00,63.9,49.7,29.92,SW,221,6.0,8.0,60,0.00,,,0.00,WeatherCatV1.14B232,2013-04-23 20:35:00,
2013-04-23 13:40:00,63.5,49.8,29.92,WSW,238,9.0,11.0,61,0.00,,,0.00,WeatherCatV1.14B232,2013-04-23 20:40:00,
2013-04-23 13:45:00,63.2,49.5,29.92,West,266,6.0,14.0,61,0.00,,,0.00,WeatherCatV1.14B232,2013-04-23 20:45:00,
2013-04-23 13:50:00,62.9,49.7,29.92,West,271,5.0,14.0,62,0.00,,,0.00,WeatherCatV1.14B232,2013-04-23 20:50:00,
2013-04-23 13:55:00,62.0,49.3,29.92,WSW,257,8.0,11.0,63,0.00,,,0.00,WeatherCatV1.14B232,2013-04-23 20:55:00,
2013-04-23 14:00:00,61.5,48.8,29.92,WSW,256,9.0,14.0,63,0.00,,,0.00,WeatherCatV1.14B232,2013-04-23 21:00:00,
2013-04-23 14:05:00,61.1,48.8,29.92,WSW,250,8.0,15.0,64,0.00,,,0.00,WeatherCatV1.14B232,2013-04-23 21:05:00,
2013-04-23 14:10:00,61.0,49.6,29.92,SW,229,10.0,12.0,66,0.00,,,0.00,WeatherCatV1.14B232,2013-04-23 21:10:00,
2013-04-23 14:15:00,61.2,49.7,29.92,SW,217,12.0,14.0,66,0.00,,,0.00,WeatherCatV1.14B232,2013-04-23 21:15:00,
2013-04-23 14:20:00,61.1,49.7,29.91,West,274,8.0,11.0,66,0.00,,,0.00,WeatherCatV1.14B232,2013-04-23 21:20:00,
2013-04-23 14:25:00,61.0,49.1,29.91,WSW,256,5.0,12.0,65,0.00,,,0.00,WeatherCatV1.14B232,2013-04-23 21:25:00,
2013-04-23 14:30:00,61.1,49.2,29.91,WSW,243,8.0,15.0,65,0.00,,,0.00,WeatherCatV1.14B232,2013-04-23 21:30:00,
2013-04-23 14:35:00,60.7,49.3,29.91,SSW,193,3.0,14.0,66,0.00,,,0.00,WeatherCatV1.14B232,2013-04-23 21:35:00,
2013-04-23 14:40:00,60.7,49.3,29.91,West,266,6.0,12.0,66,0.00,,,0.00,WeatherCatV1.14B232,2013-04-23 21:40:00,
2013-04-23 14:45:00,61.6,50.1,29.91,SSW,210,8.0,11.0,66,0.00,,,0.00,WeatherCatV1.14B232,2013-04-23 21:45:00,
2013-04-23 14:50:00,61.2,49.7,29.91,West,262,8.0,13.0,66,0.00,,,0.00,WeatherCatV1.14B232,2013-04-23 21:50:00,
2013-04-23 14:55:00,61.5,49.6,29.91,West,277,8.0,13.0,65,0.00,,,0.00,WeatherCatV1.14B232,2013-04-23 21:55:00,
2013-04-23 15:00:00,61.0,50.0,29.90,West,259,11.0,12.0,67,0.00,,,0.00,WeatherCatV1.14B232,2013-04-23 22:00:00,
2013-04-23 15:05:00,61.3,50.2,29.90,WSW,256,11.0,11.0,67,0.00,,,0.00,WeatherCatV1.14B232,2013-04-23 22:05:00,
2013-04-23 15:10:00,61.1,50.1,29.91,West,277,7.0,13.0,67,0.00,,,0.00,WeatherCatV1.14B232,2013-04-23 22:10:00,
2013-04-23 15:15:00,61.2,50.2,29.90,WSW,250,9.0,11.0,67,0.00,,,0.00,WeatherCatV1.14B232,2013-04-23 22:15:00,
2013-04-23 15:20:00,61.5,50.4,29.90,SSW,208,5.0,10.0,67,0.00,,,0.00,WeatherCatV1.14B232,2013-04-23 22:20:00,
2013-04-23 15:25:00,61.5,50.4,29.90,West,270,8.0,14.0,67,0.00,,,0.00,WeatherCatV1.14B232,2013-04-23 22:25:00,
2013-04-23 15:30:00,61.6,50.9,29.90,WSW,257,8.0,10.0,68,0.00,,,0.00,WeatherCatV1.14B232,2013-04-23 22:30:00,
2013-04-23 15:35:00,61.3,50.6,29.90,West,262,11.0,16.0,68,0.00,,,0.00,WeatherCatV1.14B232,2013-04-23 22:35:00,
2013-04-23 15:40:00,61.5,51.2,29.90,WSW,242,9.0,16.0,69,0.00,,,0.00,WeatherCatV1.14B232,2013-04-23 22:40:00,
2013-04-23 15:45:00,61.1,50.8,29.90,WSW,250,9.0,12.0,69,0.00,,,0.00,WeatherCatV1.14B232,2013-04-23 22:45:00,
2013-04-23 15:50:00,60.4,50.2,29.89,West,266,8.0,13.0,69,0.00,,,0.00,WeatherCatV1.14B232,2013-04-23 22:50:00,
2013-04-23 15:55:00,59.4,49.6,29.89,SW,228,13.0,15.0,70,0.00,,,0.00,WeatherCatV1.14B232,2013-04-23 22:55:00,
2013-04-23 16:00:00,59.4,50.0,29.89,SW,226,5.0,12.0,71,0.00,,,0.00,WeatherCatV1.14B232,2013-04-23 23:00:00,
2013-04-23 16:05:00,59.8,50.0,29.89,West,260,7.0,14.0,70,0.00,,,0.00,WeatherCatV1.14B232,2013-04-23 23:05:00,
2013-04-23 16:10:00,59.1,49.7,29.89,West,277,10.0,13.0,71,0.00,,,0.00,WeatherCatV1.14B232,2013-04-23 23:10:00,
2013-04-23 16:15:00,58.9,49.5,29.89,SW,221,11.0,14.0,71,0.00,,,0.00,WeatherCatV1.14B232,2013-04-23 23:15:00,
2013-04-23 16:20:00,58.2,49.2,29.89,WSW,240,15.0,16.0,72,0.00,,,0.00,WeatherCatV1.14B232,2013-04-23 23:20:00,
2013-04-23 16:25:00,57.5,48.9,29.89,WSW,257,18.0,18.0,73,0.00,,,0.00,WeatherCatV1.14B232,2013-04-23 23:25:00,
2013-04-23 16:30:00,57.2,49.0,29.89,SW,229,8.0,16.0,74,0.00,,,0.00,WeatherCatV1.14B232,2013-04-23 23:30:00,
2013-04-23 16:35:00,57.1,48.9,29.89,SW,233,13.0,16.0,74,0.00,,,0.00,WeatherCatV1.14B232,2013-04-23 23:35:00,
2013-04-23 16:40:00,57.1,49.2,29.89,West,259,13.0,15.0,75,0.00,,,0.00,WeatherCatV1.14B232,2013-04-23 23:40:00,
2013-04-23 16:45:00,57.0,48.8,29.89,WSW,248,10.0,16.0,74,0.00,,,0.00,WeatherCatV1.14B232,2013-04-23 23:45:00,
2013-04-23 16:50:00,56.5,48.7,29.88,WSW,257,14.0,14.0,75,0.00,,,0.00,WeatherCatV1.14B232,2013-04-23 23:50:00,
2013-04-23 16:55:00,56.5,49.0,29.88,West,264,8.0,17.0,76,0.00,,,0.00,WeatherCatV1.14B232,2013-04-23 23:55:00,
2013-04-23 17:00:00,56.3,48.8,29.88,WSW,248,9.0,15.0,76,0.00,,,0.00,WeatherCatV1.14B232,2013-04-24 00:00:00,
2013-04-23 17:05:00,56.1,48.6,29.88,West,266,9.0,15.0,76,0.00,,,0.00,WeatherCatV1.14B232,2013-04-24 00:05:00,
2013-04-23 17:10:00,56.1,48.6,29.88,WNW,288,4.0,13.0,76,0.00,,,0.00,WeatherCatV1.14B232,2013-04-24 00:10:00,
2013-04-23 17:15:00,55.7,48.6,29.88,WSW,256,14.0,14.0,77,0.00,,,0.00,WeatherCatV1.14B232,2013-04-24 00:15:00,
2013-04-23 17:20:00,55.7,48.6,29.88,SW,228,11.0,15.0,77,0.00,,,0.00,WeatherCatV1.14B232,2013-04-24 00:20:00,
2013-04-23 17:25:00,55.7,48.6,29.88,WNW,293,9.0,11.0,77,0.00,,,0.00,WeatherCatV1.14B232,2013-04-24 00:25:00,
2013-04-23 17:30:00,55.9,48.8,29.88,West,277,7.0,12.0,77,0.00,,,0.00,WeatherCatV1.14B232,2013-04-24 00:30:00,
2013-04-23 17:35:00,55.6,48.5,29.88,WSW,256,7.0,12.0,77,0.00,,,0.00,WeatherCatV1.14B232,2013-04-24 00:35:00,
2013-04-23 17:40:00,55.4,48.3,29.88,SW,215,6.0,12.0,77,0.00,,,0.00,WeatherCatV1.14B232,2013-04-24 00:40:00,
2013-04-23 17:45:00,55.0,47.9,29.88,West,273,8.0,14.0,77,0.00,,,0.00,WeatherCatV1.14B232,2013-04-24 00:45:00,
2013-04-23 17:50:00,54.7,48.0,29.88,WSW,240,8.0,11.0,78,0.00,,,0.00,WeatherCatV1.14B232,2013-04-24 00:50:00,
2013-04-23 17:55:00,54.5,47.8,29.88,WSW,254,6.0,12.0,78,0.00,,,0.00,WeatherCatV1.14B232,2013-04-24 00:55:00,
2013-04-23 18:00:00,54.3,47.6,29.88,SW,228,8.0,12.0,78,0.00,,,0.00,WeatherCatV1.14B232,2013-04-24 01:00:00,
2013-04-23 18:05:00,54.4,47.7,29.88,WSW,240,7.0,10.0,78,0.00,,,0.00,WeatherCatV1.14B232,2013-04-24 01:05:00,
2013-04-23 18:10:00,54.3,47.6,29.88,WSW,245,7.0,11.0,78,0.00,,,0.00,WeatherCatV1.14B232,2013-04-24 01:10:00,
2013-04-23 18:15:00,54.1,47.7,29.88,WSW,253,9.0,11.0,79,0.00,,,0.00,WeatherCatV1.14B232,2013-04-24 01:15:00,
2013-04-23 18:20:00,54.0,47.6,29.88,WNW,286,5.0,9.0,79,0.00,,,0.00,WeatherCatV1.14B232,2013-04-24 01:20:00,
2013-04-23 18:25:00,53.9,47.5,29.88,WSW,254,3.0,10.0,79,0.00,,,0.00,WeatherCatV1.14B232,2013-04-24 01:25:00,
2013-04-23 18:30:00,53.8,47.4,29.88,SW,223,3.0,8.0,79,0.00,,,0.00,WeatherCatV1.14B232,2013-04-24 01:30:00,
2013-04-23 18:35:00,53.8,47.4,29.88,WSW,246,2.0,8.0,79,0.00,,,0.00,WeatherCatV1.14B232,2013-04-24 01:35:00,
2013-04-23 18:40:00,53.4,47.4,29.88,WSW,253,4.0,7.0,80,0.00,,,0.00,WeatherCatV1.14B232,2013-04-24 01:40:00,
2013-04-23 18:45:00,53.2,47.2,29.88,SW,229,2.0,6.0,80,0.00,,,0.00,WeatherCatV1.14B232,2013-04-24 01:45:00,
2013-04-23 18:50:00,53.2,47.2,29.88,WSW,243,3.0,6.0,80,0.00,,,0.00,WeatherCatV1.14B232,2013-04-24 01:50:00,
2013-04-23 18:55:00,53.9,47.5,29.88,WSW,248,6.0,12.0,79,0.00,,,0.00,WeatherCatV1.14B232,2013-04-24 01:55:00,
2013-04-23 19:00:00,53.9,47.5,29.88,WSW,248,6.0,12.0,79,0.00,,,0.00,WeatherCatV1.14B232,2013-04-24 02:00:00,
2013-04-23 19:05:00,53.9,47.5,29.88,WSW,248,6.0,12.0,79,0.00,,,0.00,WeatherCatV1.14B232,2013-04-24 02:05:00,
2013-04-23 19:10:00,53.9,47.5,29.88,WSW,248,6.0,12.0,79,0.00,,,0.00,WeatherCatV1.14B232,2013-04-24 02:10:00,
2013-04-23 19:15:00,53.9,47.5,29.88,WSW,248,6.0,12.0,79,0.00,,,0.00,WeatherCatV1.14B232,2013-04-24 02:15:00,
2013-04-23 19:20:00,53.9,47.5,29.88,WSW,248,6.0,12.0,79,0.00,,,0.00,WeatherCatV1.14B232,2013-04-24 02:20:00,
2013-04-23 19:25:00,52.8,46.8,29.88,WSW,248,3.0,9.0,80,0.00,,,0.00,WeatherCatV1.14B232,2013-04-24 02:25:00,
2013-04-23 19:30:00,52.8,46.8,29.88,WSW,248,3.0,9.0,80,0.00,,,0.00,WeatherCatV1.14B232,2013-04-24 02:30:00,
2013-04-23 19:35:00,52.8,46.8,29.88,WSW,248,3.0,9.0,80,0.00,,,0.00,WeatherCatV1.14B232,2013-04-24 02:35:00,
2013-04-23 19:40:00,52.8,46.8,29.88,WSW,248,3.0,9.0,80,0.00,,,0.00,WeatherCatV1.14B232,2013-04-24 02:40:00,
2013-04-23 19:45:00,52.8,46.8,29.88,WSW,248,3.0,9.0,80,0.00,,,0.00,WeatherCatV1.14B232,2013-04-24 02:45:00,
2013-04-23 19:50:00,52.8,46.8,29.88,WSW,248,3.0,9.0,80,0.00,,,0.00,WeatherCatV1.14B232,2013-04-24 02:50:00,
2013-04-23 20:01:00,52.8,46.8,29.88,WSW,248,3.0,9.0,80,0.00,,,0.00,WeatherCatV1.14B232,2013-04-24 03:01:00,
2013-04-23 20:06:00,49.6,45.0,29.88,West,276,4.0,6.0,84,0.00,,,0.00,WeatherCatV1.14B232,2013-04-24 03:06:00,
2013-04-23 20:11:00,49.2,44.9,29.88,SW,233,4.0,7.0,85,0.00,,,0.00,WeatherCatV1.14B232,2013-04-24 03:11:00,
2013-04-23 20:16:00,49.0,45.0,29.88,SW,229,3.0,9.0,86,0.00,,,0.00,WeatherCatV1.14B232,2013-04-24 03:16:00,
2013-04-23 20:21:00,48.7,44.7,29.88,SW,217,2.0,6.0,86,0.00,,,0.00,WeatherCatV1.14B232,2013-04-24 03:21:00,
2013-04-23 20:26:00,48.6,44.6,29.88,SW,233,6.0,6.0,86,0.00,,,0.00,WeatherCatV1.14B232,2013-04-24 03:26:00,
2013-04-23 20:31:00,48.6,44.9,29.89,WSW,252,4.0,5.0,87,0.00,,,0.00,WeatherCatV1.14B232,2013-04-24 03:31:00,
2013-04-23 20:36:00,48.5,44.8,29.89,WSW,255,6.0,7.0,87,0.00,,,0.00,WeatherCatV1.14B232,2013-04-24 03:36:00,
2013-04-23 20:41:00,48.4,44.7,29.89,SW,217,4.0,7.0,87,0.00,,,0.00,WeatherCatV1.14B232,2013-04-24 03:41:00,
2013-04-23 20:46:00,48.4,44.7,29.89,SW,225,3.0,8.0,87,0.00,,,0.00,WeatherCatV1.14B232,2013-04-24 03:46:00,
2013-04-23 20:51:00,48.3,44.6,29.89,WSW,239,5.0,8.0,87,0.00,,,0.00,WeatherCatV1.14B232,2013-04-24 03:51:00,
2013-04-23 20:56:00,48.2,44.5,29.89,WSW,246,5.0,9.0,87,0.00,,,0.00,WeatherCatV1.14B232,2013-04-24 03:56:00,
2013-04-23 21:01:00,48.1,44.4,29.89,SW,215,6.0,12.0,87,0.00,,,0.00,WeatherCatV1.14B232,2013-04-24 04:01:00,
2013-04-23 21:06:00,47.9,44.2,29.89,SW,231,4.0,6.0,87,0.00,,,0.00,WeatherCatV1.14B232,2013-04-24 04:06:00,
2013-04-23 21:11:00,47.8,44.1,29.90,WSW,256,10.0,11.0,87,0.00,,,0.00,WeatherCatV1.14B232,2013-04-24 04:11:00,
2013-04-23 21:16:00,47.7,44.3,29.90,SW,233,8.0,10.0,88,0.00,,,0.00,WeatherCatV1.14B232,2013-04-24 04:16:00,
2013-04-23 21:21:00,47.6,44.2,29.90,WSW,238,9.0,9.0,88,0.00,,,0.00,WeatherCatV1.14B232,2013-04-24 04:21:00,
2013-04-23 21:26:00,47.5,44.1,29.90,SW,225,5.0,10.0,88,0.00,,,0.00,WeatherCatV1.14B232,2013-04-24 04:26:00,
2013-04-23 21:30:00,47.4,44.0,29.90,SW,232,8.0,10.0,88,0.00,,,0.00,WeatherCatV1.14B232,2013-04-24 04:30:00,
2013-04-23 21:35:00,47.4,44.0,29.90,WSW,242,6.0,9.0,88,0.00,,,0.00,WeatherCatV1.14B232,2013-04-24 04:35:00,
2013-04-23 21:40:00,47.4,44.0,29.90,SW,231,7.0,10.0,88,0.00,,,0.00,WeatherCatV1.14B232,2013-04-24 04:40:00,
2013-04-23 21:45:00,47.4,44.0,29.90,West,267,6.0,10.0,88,0.00,,,0.00,WeatherCatV1.14B232,2013-04-24 04:45:00,
2013-04-23 21:50:00,47.4,44.3,29.90,WSW,248,8.0,11.0,89,0.00,,,0.00,WeatherCatV1.14B232,2013-04-24 04:50:00,
2013-04-23 21:55:00,47.3,44.2,29.90,SW,232,6.0,10.0,89,0.00,,,0.00,WeatherCatV1.14B232,2013-04-24 04:55:00,
2013-04-23 22:00:00,47.3,44.2,29.90,WSW,248,9.0,13.0,89,0.00,,,0.00,WeatherCatV1.14B232,2013-04-24 05:00:00,
2013-04-23 22:05:00,47.2,44.1,29.90,SW,235,9.0,11.0,89,0.00,,,0.00,WeatherCatV1.14B232,2013-04-24 05:05:00,
2013-04-23 22:10:00,47.2,44.1,29.90,SSW,210,7.0,13.0,89,0.00,,,0.00,WeatherCatV1.14B232,2013-04-24 05:10:00,
2013-04-23 22:15:00,47.2,44.1,29.90,WSW,252,8.0,13.0,89,0.00,,,0.00,WeatherCatV1.14B232,2013-04-24 05:15:00,
2013-04-23 22:20:00,47.1,44.0,29.90,SW,229,8.0,11.0,89,0.00,,,0.00,WeatherCatV1.14B232,2013-04-24 05:20:00,
2013-04-23 22:25:00,47.1,44.0,29.90,West,263,6.0,12.0,89,0.00,,,0.00,WeatherCatV1.14B232,2013-04-24 05:25:00,
2013-04-23 22:30:00,47.0,44.2,29.90,WSW,240,7.0,12.0,90,0.00,,,0.00,WeatherCatV1.14B232,2013-04-24 05:30:00,
2013-04-23 22:35:00,46.9,44.1,29.90,West,276,9.0,11.0,90,0.00,,,0.00,WeatherCatV1.14B232,2013-04-24 05:35:00,
2013-04-23 22:40:00,46.9,44.1,29.90,SW,236,10.0,13.0,90,0.00,,,0.00,WeatherCatV1.14B232,2013-04-24 05:40:00,
2013-04-23 22:45:00,46.9,44.1,29.90,South,189,6.0,11.0,90,0.00,,,0.00,WeatherCatV1.14B232,2013-04-24 05:45:00,
2013-04-23 22:50:00,46.8,44.0,29.90,WSW,256,9.0,11.0,90,0.00,,,0.00,WeatherCatV1.14B232,2013-04-24 05:50:00,
2013-04-23 22:55:00,46.7,43.9,29.90,WSW,257,6.0,12.0,90,0.00,,,0.00,WeatherCatV1.14B232,2013-04-24 05:55:00,
2013-04-23 23:00:00,46.7,43.9,29.90,WSW,243,6.0,11.0,90,0.00,,,0.00,WeatherCatV1.14B232,2013-04-24 06:00:00,
2013-04-23 23:05:00,46.7,43.9,29.90,West,271,5.0,10.0,90,0.00,,,0.00,WeatherCatV1.14B232,2013-04-24 06:05:00,
2013-04-23 23:10:00,46.7,43.9,29.90,WSW,256,8.0,10.0,90,0.00,,,0.00,WeatherCatV1.14B232,2013-04-24 06:10:00,
2013-04-23 23:15:00,46.7,43.9,29.89,WSW,253,8.0,10.0,90,0.00,,,0.00,WeatherCatV1.14B232,2013-04-24 06:15:00,
2013-04-23 23:20:00,46.6,43.8,29.89,WSW,249,7.0,10.0,90,0.00,,,0.00,WeatherCatV1.14B232,2013-04-24 06:20:00,
2013-04-23 23:25:00,46.6,44.1,29.89,SW,220,6.0,9.0,91,0.00,,,0.00,WeatherCatV1.14B232,2013-04-24 06:25:00,
2013-04-23 23:30:00,46.6,44.1,29.89,West,271,8.0,10.0,91,0.00,,,0.00,WeatherCatV1.14B232,2013-04-24 06:30:00,
2013-04-23 23:35:00,46.6,44.1,29.89,WSW,243,7.0,12.0,91,0.00,,,0.00,WeatherCatV1.14B232,2013-04-24 06:35:00,
2013-04-23 23:40:00,46.5,44.0,29.89,WSW,248,10.0,12.0,91,0.00,,,0.00,WeatherCatV1.14B232,2013-04-24 06:40:00,
2013-04-23 23:45:00,46.4,43.9,29.89,WSW,240,10.0,12.0,91,0.00,,,0.00,WeatherCatV1.14B232,2013-04-24 06:45:00,
2013-04-23 23:50:00,46.5,44.0,29.89,SW,226,7.0,13.0,91,0.00,,,0.00,WeatherCatV1.14B232,2013-04-24 06:50:00,
2013-04-23 23:55:00,46.5,44.0,29.89,NW,304,8.0,12.0,91,0.00,,,0.00,WeatherCatV1.14B232,2013-04-24 06:55:00,